Content
SEND FEEDBACK

Daily
Averages
Monthly
Summary
Romania

TIMISOARA, ROMANIA


Home > Europe > Romania
Elevation: 335 feet     Latitude: 45 45N     Longitude: 021 14E

WEATHER
 
SELECT A DAY
Number of Records: 276,651;   Date Range: 7/1/96 - 8/30/14
 
SHARE

PRINT THIS DATA

[ ← Previous Day ]
WEATHER ALMANAC - MARCH 12, 2014
[ Next Day → ]
[ °C ]   °F
Weather ElementAverageHighLow
Temperature43.9 °F59 °F (2:00 pm)28.4 °F (6:00 am)
Dewpoint32 °F35.6 °F (9:00 am)26.6 °F (12:30 am)
Humidity66.7 %100 % (5:30 am)36 % (4:00 pm)
Barometer30.31 in30.33 in (8:30 am)30.27 in (12:30 am)
Wind Speed6.1 mph17.3 mph (3:30 pm)
Wind Gust29.9 mph (3:30 pm)
Weather ElementAverage
Visibility5.5 mi
Wind DirectionSSW (198.3 °)

Weather ElementTotal
Precipitation---
Heating Degree Days21.3 (Base 65)
Averaged from 46 records on March 12, 2014
WEATHER CONDITIONS BREAKOUT
WIND DIRECTION BREAKOUT
WEATHER BY HOUR - MARCH 12, 2014
[ °C ]   °F
Local TimeTemperatureDewpointHumidityBarometerVisibilityWind DirectionWind SpeedGust SpeedPrecipitationEventsConditions
12:30 AM42.8 °F26.6 °F53 %30.27 inENE (60°)3.5 mphClear
1:30 AM37.4 °F28.4 °F70 %30.30 inNE (40°)4.6 mphClear
2:00 AM39.2 °F28.4 °F65 %30.30 inNNE (30°)2.3 mphClear
2:30 AM33.8 °F28.4 °F81 %30.30 inNW (310°)1.2 mphClear
3:00 AM35.6 °F28.4 °F75 %30.27 inVariable1.2 mphClear
3:30 AM30.2 °F28.4 °F93 %30.27 inEast (90°)5.8 mphClear
4:00 AM30.2 °F28.4 °F93 %30.27 inEast (90°)3.5 mph
4:30 AM32.0 °F30.2 °F93 %30.30 inENE (60°)3.5 mphClear
5:00 AM32.0 °F30.2 °F93 %30.30 inESE (120°)3.5 mphClear
5:30 AM30.2 °F30.2 °F100 %30.30 inEast (90°)2.3 mphClear
6:00 AM28.4 °F26.6 °F93 %30.30 inEast (80°)5.8 mphClear
6:30 AM28.4 °F26.6 °F93 %30.30 inENE (70°)5.8 mphClear
7:00 AM28.4 °F26.6 °F93 %30.30 in5.6 miENE (70°)3.5 mphFogFog
7:30 AM28.4 °F28.4 °F100 %30.30 in5.0 miEast (80°)3.5 mph
8:00 AM32.0 °F30.2 °F93 %30.30 in5.6 miEast (80°)2.3 mph
8:30 AM35.6 °F33.8 °F93 %30.33 in5.6 miVariable1.2 mph
9:00 AM37.4 °F35.6 °F93 %30.33 in5.6 miVariable2.3 mph
9:30 AM39.2 °F35.6 °F87 %30.33 inVariable2.3 mphClear
10:00 AM42.8 °F35.6 °F76 %30.33 inCalmClear
10:30 AM46.4 °F35.6 °F66 %30.33 inCalmClear
11:00 AM48.2 °F33.8 °F58 %30.33 inNorth (350°)4.6 mphClear
11:30 AM50.0 °F33.8 °F54 %30.33 inNNW (330°)8.1 mphClear
12:00 PM51.8 °F33.8 °F50 %30.33 inNorth (350°)9.2 mphClear
12:30 PM53.6 °F33.8 °F47 %30.33 inNorth (350°)10.4 mphClear
1:00 PM55.4 °F35.6 °F47 %30.33 inNNW (340°)12.7 mphClear
1:30 PM57.2 °F35.6 °F44 %30.33 inNNW (340°)15.0 mphClear
2:00 PM59.0 °F35.6 °F42 %30.30 inNNW (340°)13.8 mphClear
2:30 PM59.0 °F35.6 °F42 %30.30 inNorth (350°)12.7 mphClear
3:00 PM59.0 °F35.6 °F42 %30.30 inNorth (350°)12.7 mphClear
3:30 PM59.0 °F33.8 °F39 %30.30 inNNW (340°)17.3 mph29.9 mphClear
4:00 PM59.0 °F32.0 °F36 %30.30 inNorth (360°)15.0 mphClear
4:30 PM59.0 °F32.0 °F36 %30.30 inNorth (350°)11.5 mphClear
5:00 PM59.0 °F33.8 °F39 %30.27 inNNW (340°)11.5 mphClear
5:30 PM57.2 °F33.8 °F41 %30.30 inNorth (360°)10.4 mphClear
6:00 PM55.4 °F33.8 °F44 %30.30 inNorth (360°)10.4 mphClear
6:30 PM53.6 °F32.0 °F44 %30.30 inNorth (350°)8.1 mphClear
7:00 PM50.0 °F32.0 °F50 %30.30 inNorth (360°)6.9 mphClear
7:30 PM48.2 °F32.0 °F54 %30.30 inNNW (340°)6.9 mphClear
8:00 PM42.8 °F32.0 °F66 %30.30 inWNW (300°)4.6 mphClear
8:30 PM42.8 °F32.0 °F66 %30.33 inWNW (300°)2.3 mphClear
9:00 PM41.0 °F33.8 °F76 %30.33 inWNW (290°)3.5 mphClear
9:30 PM41.0 °F33.8 °F76 %30.33 inCalmClear
10:00 PM42.8 °F32.0 °F66 %30.33 inVariable1.2 mphClear
10:30 PM42.8 °F33.8 °F70 %30.33 inNorth (360°)3.5 mphClear
11:00 PM41.0 °F32.0 °F70 %30.33 inVariable2.3 mphClear
11:30 PM42.8 °F32.0 °F66 %30.33 inNNW (340°)6.9 mphClear
Hourly data recorded from LRTR, located miles away from Timisoara, Romania







STORIES FROM OUR PARTNERS